Flag for U.S.A. Weather past 2 weeks in Grand Rapids, Michigan, U.S.A.

37 °F

Low clouds.

Feels Like: 29 °F
Forecast: 35 / 44 °F
Wind: 13 mph from Southeast

Location: Kent County International Airport

Current Time: Dec 1, 2015 at 4:44:31 AM

Latest Report: Dec 1, 2015 at 3:53 AM

Visibility: 7 mi

Pressure: 29.91 "Hg

Humidity: 93%

Dew point: 35 °F

Location of Grand RapidsLocation

Historic Weather in Grand Rapids — Graph


Grand Rapids temperature yesterday

Maximum temperature yesterday: 41 °F (at 12:53 PM)
Minimum temperature yesterday: 25 °F (at 2:53 AM)
Average temperature yesterday: 35 °F

Past Weeks' High & Low Weather Summary

High65 °F (Nov 16, 12:53 PM)100% (Nov 26, 7:53 AM)30.44 "Hg (Nov 26, 7:53 AM)
Low19 °F (Nov 22, 6:53 AM)29% (Nov 16, 2:53 PM)29.52 "Hg (Nov 18, 2:53 PM)
Average40 °F71%30.15 "Hg
* Reported Nov 16 3:53 AM — Dec 1 3:53 AM, Grand Rapids, Weather by CustomWeather, © 2015

Note: Actual official high and low records may vary slightly from our data, if they occured in-between our weather recording intervals... More about our weather records


Grand Rapids weather history for previous 24 hours

Time TempWeatherWind HumidityBarometerVisibility
3:53 AM
Tue, Dec 1
37 °FLow clouds.13 mph93%29.91 "Hg7 mi
2:53 AM37 °FMostly cloudy.17 mph89%29.93 "Hg7 mi
2:01 AM37 °FLight rain. Mostly cloudy.17 mph86%29.94 "Hg9 mi
12:53 AM37 °FLight rain. Mostly cloudy.18 mph82%29.98 "Hg10 mi
11:53 PM
Mon, Nov 30
38 °FOvercast.17 mph76%30.01 "Hg10 mi
10:53 PM38 °FOvercast.15 mph76%30.04 "Hg10 mi
9:53 PM38 °FPassing clouds.17 mph76%30.06 "Hg10 mi
8:53 PM39 °FOvercast.20 mph73%30.09 "Hg10 mi
7:53 PM39 °FOvercast.15 mph70%30.11 "Hg10 mi
6:53 PM39 °FMostly cloudy.15 mph70%30.13 "Hg10 mi
5:53 PM40 °FMostly cloudy.15 mph68%30.14 "Hg10 mi
4:53 PM40 °FMostly cloudy.10 mph70%30.15 "Hg10 mi
3:53 PM40 °FMostly cloudy.9 mph70%30.18 "Hg10 mi
2:53 PM41 °FMostly cloudy.13 mph65%30.19 "Hg10 mi
1:53 PM41 °FBroken clouds.9 mph65%30.22 "Hg10 mi
12:53 PM41 °FPartly sunny.13 mph67%30.24 "Hg10 mi
11:53 AM39 °FPartly sunny.12 mph73%30.27 "Hg10 mi
10:53 AM37 °FBroken clouds.10 mph76%30.30 "Hg10 mi
9:53 AM34 °FBroken clouds.10 mph82%30.29 "Hg9 mi
8:53 AM31 °FIce fog.9 mph89%30.30 "Hg6 mi
7:53 AM31 °FOvercast.8 mph89%30.29 "Hg7 mi
6:53 AM31 °FOvercast.9 mph85%30.29 "Hg8 mi
5:53 AM30 °FOvercast.10 mph89%30.28 "Hg9 mi
4:53 AM29 °FOvercast.10 mph93%30.30 "Hg8 mi
Weather by CustomWeather, © 2015

See weather overviewHow to use our weather pages